Hourly Data Report for November 04, 2017

All times are specified in Local Standard Time (LST). Add 1 hour to adjust for Daylight Saving Time where and when it is observed.

GREENWOOD A
NOVA SCOTIA

44°59'00.000" N
64°55'00.000" W
28.00 m
8202000
71397
YZX

Download Data

Hourly Data (November 2017)
Hourly Data Report for November 4, 2017
Temp Definition
°C
Dew Point Temp Definition
°C
Rel Hum Definition
%
Wind Dir Definition
10's deg

Wind Spd Definition
km/h
Visibility Definition
km
Stn Press Definition
kPa
Hmdx Definition


Wind Chill Definition


Weather Definition


TIME
00:00 11.2 7.7 79 27 15 24.1 101.06     Mostly Cloudy
01:00 9.8 5.7 76 30 22 24.1 101.14     Mainly Clear
02:00 8.8 0.3 55 30 37 24.1 101.26     Mainly Clear
03:00 7.9 1.3 63 30 30 24.1 101.34     Mainly Clear
04:00 7.2 0.7 63 29 28 24.1 101.44     Mainly Clear
05:00 6.8 0.5 64 29 24 24.1 101.54     Mainly Clear
06:00 6.4 -0.6 61 30 17 24.1 101.62     Mainly Clear
07:00 6.3 -0.2 63 29 9 24.1 101.73     Mainly Clear
08:00 6.2 0.2 65 29 11 24.1 101.83     Mainly Clear
09:00 7.2 0.1 61 29 20 24.1 101.92     Mainly Clear
10:00 7.8 -0.2 57 33 17 24.1 101.99     Mainly Clear
11:00 8.2 -0.5 54 29 15 24.1 102.01     Mainly Clear
12:00 8.7 -0.4 53 29 20 24.1 102.07     Mainly Clear
13:00 9.2 -0.9 49 28 20 24.1 102.09     Mainly Clear
14:00 9.4 -1.2 47 28 20 24.1 102.13     Mainly Clear
15:00 9.1 -1.0 49 28 20 24.1 102.18     Mostly Cloudy
16:00 8.6 -1.1 50 28 20 24.1 102.23     Mostly Cloudy
17:00 7.8 -1.3 53 27 9 24.1 102.32     Mostly Cloudy
18:00 6.7 -1.4 56 28 7 24.1 102.42     Mostly Cloudy
19:00 6.7 -1.4 56 28 7 24.1 102.42     Mostly Cloudy
20:00 6.3 -3.2 51 29 4 24.1 102.59     Mainly Clear
21:00 3.0 -2.0 70   0 24.1 102.66     Mainly Clear
22:00 4.8 -2.1 61   0 24.1 102.73     Mainly Clear
23:00 4.4 -2.9 59 2 13 24.1 102.78     Mainly Clear

Notes on Data Quality.

Legend

  • E = Estimated
  • M = Missing
  • NA = Not Available
  • ‡ = Partner data that is not subject to review by the National Climate Archives
Date modified: